TimeCST,TemperatureF,Dew PointF,Humidity,Sea Level PressureIn,VisibilityMPH,Wind Direction,Wind SpeedMPH,Gust SpeedMPH,PrecipitationIn,Events,Conditions,WindDirDegrees,DateUTC
12:14 AM,35.6,28.4,75,29.83,10.0,South,9.2,-,N/A,,Clear,180,2012-11-21 06:14:00
12:35 AM,37.4,28.4,70,29.83,10.0,South,8.1,-,N/A,,Clear,190,2012-11-21 06:35:00
12:54 AM,35.6,28.4,75,29.83,10.0,SSW,8.1,-,N/A,,Clear,200,2012-11-21 06:54:00
1:14 AM,35.6,28.4,75,29.83,10.0,SSW,6.9,-,N/A,,Clear,200,2012-11-21 07:14:00
1:34 AM,35.6,28.4,75,29.83,10.0,SSW,4.6,-,N/A,,Clear,200,2012-11-21 07:34:00
1:54 AM,33.8,28.4,81,29.83,10.0,SSW,5.8,-,N/A,,Clear,200,2012-11-21 07:54:00
2:14 AM,33.8,26.6,75,29.82,10.0,South,8.1,-,N/A,,Clear,180,2012-11-21 08:14:00
2:34 AM,33.8,26.6,75,29.84,10.0,SSW,4.6,-,N/A,,Clear,210,2012-11-21 08:34:00
2:54 AM,35.6,28.4,75,29.85,10.0,WSW,4.6,-,N/A,,Clear,240,2012-11-21 08:54:00
3:14 AM,35.6,28.4,75,29.85,10.0,Calm,Calm,-,N/A,,Clear,0,2012-11-21 09:14:00
3:34 AM,35.6,28.4,75,29.84,10.0,Calm,Calm,-,N/A,,Clear,0,2012-11-21 09:34:00
3:54 AM,32.0,26.6,80,29.85,10.0,Calm,Calm,-,N/A,,Clear,0,2012-11-21 09:54:00
4:14 AM,30.2,26.6,86,29.85,10.0,Calm,Calm,-,N/A,,Clear,0,2012-11-21 10:14:00
4:34 AM,30.2,26.6,86,29.85,10.0,SW,3.5,-,N/A,,Clear,220,2012-11-21 10:34:00
4:55 AM,30.2,26.6,86,29.84,10.0,SSW,3.5,-,N/A,,Clear,200,2012-11-21 10:55:00
5:14 AM,30.2,26.6,86,29.84,10.0,Calm,Calm,-,N/A,,Clear,0,2012-11-21 11:14:00
5:34 AM,32.0,26.6,80,29.85,10.0,South,3.5,-,N/A,,Clear,190,2012-11-21 11:34:00
5:55 AM,32.0,26.6,80,29.86,7.0,Calm,Calm,-,N/A,,Clear,0,2012-11-21 11:55:00
6:14 AM,30.2,26.6,86,29.86,7.0,Calm,Calm,-,N/A,,Clear,0,2012-11-21 12:14:00
6:34 AM,30.2,26.6,86,29.86,7.0,SSW,3.5,-,N/A,,Clear,200,2012-11-21 12:34:00
6:55 AM,28.4,24.8,86,29.86,7.0,Calm,Calm,-,N/A,,Clear,0,2012-11-21 12:55:00
7:14 AM,30.2,26.6,86,29.86,7.0,Calm,Calm,-,N/A,,Clear,0,2012-11-21 13:14:00
7:34 AM,30.2,26.6,86,29.86,7.0,Calm,Calm,-,N/A,,Clear,0,2012-11-21 13:34:00
7:55 AM,30.2,26.6,86,29.86,5.0,SSE,3.5,-,N/A,,Clear,160,2012-11-21 13:55:00
8:14 AM,30.2,26.6,86,29.86,5.0,SE,3.5,-,N/A,,Haze,140,2012-11-21 14:14:00
8:34 AM,30.2,26.6,86,29.86,5.0,Calm,Calm,-,N/A,,Haze,0,2012-11-21 14:34:00
8:55 AM,30.2,26.6,86,29.86,5.0,Calm,Calm,-,N/A,,Haze,0,2012-11-21 14:55:00
9:14 AM,32.0,26.6,80,29.86,4.0,Calm,Calm,-,N/A,,Haze,0,2012-11-21 15:14:00
9:34 AM,33.8,28.4,81,29.85,5.0,Calm,Calm,-,N/A,,Clear,0,2012-11-21 15:34:00
9:54 AM,35.6,30.2,81,29.85,7.0,Calm,Calm,-,N/A,,Clear,0,2012-11-21 15:54:00
10:14 AM,37.4,32.0,81,29.86,10.0,Calm,Calm,-,N/A,,Clear,0,2012-11-21 16:14:00
10:34 AM,37.4,32.0,81,29.85,10.0,East,5.8,-,N/A,,Clear,80,2012-11-21 16:34:00
11:14 AM,39.2,33.8,81,29.85,10.0,ENE,4.6,-,N/A,,Clear,70,2012-11-21 17:14:00
11:34 AM,41.0,33.8,76,29.83,10.0,East,4.6,-,N/A,,Clear,90,2012-11-21 17:34:00
11:54 AM,42.8,35.6,76,29.83,10.0,SE,4.6,-,N/A,,Clear,130,2012-11-21 17:54:00
12:14 PM,42.8,35.6,76,29.82,10.0,SE,4.6,-,N/A,,Clear,130,2012-11-21 18:14:00
12:34 PM,42.8,35.6,76,29.82,10.0,East,3.5,-,N/A,,Clear,90,2012-11-21 18:34:00
12:54 PM,42.8,35.6,76,29.81,10.0,Calm,Calm,-,N/A,,Clear,0,2012-11-21 18:54:00
1:14 PM,44.6,35.6,71,29.79,10.0,Calm,Calm,-,N/A,,Clear,0,2012-11-21 19:14:00
1:34 PM,44.6,35.6,71,29.79,10.0,SE,3.5,-,N/A,,Clear,140,2012-11-21 19:34:00
1:54 PM,46.4,37.4,71,29.77,10.0,SSE,8.1,-,N/A,,Clear,150,2012-11-21 19:54:00
2:14 PM,46.4,37.4,71,29.77,10.0,SSE,6.9,-,N/A,,Clear,150,2012-11-21 20:14:00
2:34 PM,48.2,37.4,66,29.77,10.0,SSE,4.6,-,N/A,,Clear,150,2012-11-21 20:34:00
2:54 PM,48.2,37.4,66,29.76,10.0,SSE,5.8,-,N/A,,Clear,160,2012-11-21 20:54:00
3:15 PM,46.4,37.4,71,29.74,10.0,SE,4.6,-,N/A,,Clear,140,2012-11-21 21:15:00
3:34 PM,46.4,37.4,71,29.74,10.0,East,3.5,-,N/A,,Clear,100,2012-11-21 21:34:00
3:59 PM,44.6,37.4,76,29.72,10.0,ENE,6.9,-,N/A,,Clear,70,2012-11-21 21:59:00
4:15 PM,42.8,35.6,76,29.71,10.0,ENE,8.1,-,N/A,,Clear,70,2012-11-21 22:15:00
4:34 PM,42.8,35.6,76,29.70,10.0,ENE,6.9,-,N/A,,Clear,70,2012-11-21 22:34:00
4:54 PM,39.2,33.8,81,29.69,10.0,ENE,8.1,-,N/A,,Clear,70,2012-11-21 22:54:00
5:15 PM,39.2,33.8,81,29.68,10.0,ENE,8.1,-,N/A,,Clear,70,2012-11-21 23:15:00
5:34 PM,37.4,33.8,87,29.68,10.0,ENE,6.9,-,N/A,,Clear,60,2012-11-21 23:34:00
5:54 PM,37.4,33.8,87,29.67,10.0,ENE,5.8,-,N/A,,Clear,60,2012-11-21 23:54:00
6:15 PM,37.4,32.0,81,29.67,10.0,ENE,5.8,-,N/A,,Clear,60,2012-11-22 00:15:00
6:34 PM,37.4,32.0,81,29.66,10.0,ENE,5.8,-,N/A,,Clear,70,2012-11-22 00:34:00
6:54 PM,37.4,33.8,87,29.65,10.0,East,5.8,-,N/A,,Clear,90,2012-11-22 00:54:00
7:15 PM,35.6,30.2,81,29.64,10.0,NE,4.6,-,N/A,,Clear,50,2012-11-22 01:15:00
7:34 PM,35.6,30.2,81,29.63,10.0,NE,5.8,-,N/A,,Clear,50,2012-11-22 01:34:00
7:54 PM,35.6,30.2,81,29.62,10.0,ENE,5.8,-,N/A,,Clear,60,2012-11-22 01:54:00
8:15 PM,35.6,30.2,81,29.61,10.0,ENE,5.8,-,N/A,,Clear,70,2012-11-22 02:15:00
8:34 PM,35.6,30.2,81,29.61,10.0,East,4.6,-,N/A,,Clear,80,2012-11-22 02:34:00
8:54 PM,37.4,32.0,81,29.60,10.0,Calm,Calm,-,N/A,,Clear,0,2012-11-22 02:54:00
9:15 PM,35.6,30.2,81,29.59,10.0,ENE,4.6,-,N/A,,Clear,70,2012-11-22 03:15:00
9:34 PM,33.8,30.2,87,29.58,10.0,ENE,4.6,-,N/A,,Clear,70,2012-11-22 03:34:00
9:55 PM,35.6,30.2,81,29.56,10.0,East,4.6,-,N/A,,Clear,80,2012-11-22 03:55:00
10:14 PM,35.6,30.2,81,29.55,10.0,ENE,4.6,-,N/A,,Clear,70,2012-11-22 04:14:00
10:34 PM,33.8,28.4,81,29.55,10.0,ENE,4.6,-,N/A,,Clear,70,2012-11-22 04:34:00
10:55 PM,33.8,30.2,87,29.54,10.0,ENE,3.5,-,N/A,,Clear,70,2012-11-22 04:55:00
11:14 PM,33.8,28.4,81,29.54,10.0,Calm,Calm,-,N/A,,Clear,0,2012-11-22 05:14:00
11:34 PM,33.8,28.4,81,29.53,10.0,Calm,Calm,-,N/A,,Clear,0,2012-11-22 05:34:00
11:54 PM,33.8,28.4,81,29.53,10.0,ENE,4.6,-,N/A,,Clear,60,2012-11-22 05:54:00